Location: Arborea
(39.7744°N, 8.5819°E)
Time: 07:12:44
(UTC+00:00)

CZ-2C DEB - Visible Passes

Search period start: 17 August 2022 00:00
Search period end: 27 August 2022 00:00
Orbit: 679 x 930 km, 97.9° (Epoch: 16 August)

Date Brightness Start Highest point End Pass type
(mag) Time Alt. Az. Time Alt. Az. Time Alt. Az.
17 Aug ? 20:14:13 10° NE 20:16:42 19° ENE 20:16:42 19° ENE visible
17 Aug ? 21:53:18 10° N 21:57:44 44° WNW 21:57:44 44° WNW visible
18 Aug ? 19:50:29 10° ENE 19:51:05 11° ENE 19:51:05 11° ENE visible
18 Aug ? 21:27:48 10° N 21:32:06 61° N 21:32:06 61° N visible
19 Aug ? 21:02:32 10° NNE 21:06:28 49° NE 21:06:28 49° NE visible
19 Aug ? 22:43:52 10° NNW 22:47:09 17° WNW 22:47:29 17° WNW visible
20 Aug ? 20:37:31 10° NNE 20:40:49 31° ENE 20:40:49 31° ENE visible
20 Aug ? 22:17:42 10° NNW 22:21:51 28° WNW 22:21:51 28° WNW visible
21 Aug ? 20:12:52 10° NE 20:15:12 19° ENE 20:15:12 19° ENE visible
21 Aug ? 21:51:58 10° N 21:56:13 43° NW 21:56:13 43° NW visible
22 Aug ? 19:49:02 10° ENE 19:49:33 11° ENE 19:49:33 11° ENE visible
22 Aug ? 21:26:29 10° N 21:30:34 54° N 21:30:34 54° N visible
22 Aug ? 23:10:12 10° NW 23:10:53 10° WNW 23:11:33 10° WNW visible
23 Aug ? 21:01:13 10° NNE 21:04:56 44° NE 21:04:56 44° NE visible
23 Aug ? 22:42:29 10° NNW 22:45:57 18° WNW 22:45:57 18° WNW visible
24 Aug ? 20:36:12 10° NNE 20:39:17 29° NE 20:39:17 29° NE visible
24 Aug ? 22:16:22 10° N 22:20:18 28° WNW 22:20:18 28° WNW visible
25 Aug ? 20:11:31 10° NE 20:13:37 18° ENE 20:13:37 18° ENE visible
25 Aug ? 21:50:38 10° N 21:54:39 41° NW 21:54:39 41° NW visible
26 Aug ? 19:47:36 10° ENE 19:47:58 11° ENE 19:47:58 11° ENE visible
26 Aug ? 21:25:09 10° N 21:28:59 48° N 21:28:59 48° N visible
26 Aug ? 23:08:25 10° NW 23:09:39 11° WNW 23:10:01 11° WNW visible
